Location: Coat-M�al
(48.5087°N, 4.5414°W)
Time: 11:25:16
(UTC+00:00)

Daily predictions for brighter satellites

Satellite Brightness Start Highest point End
(mag) Time Altitude Azimuth Time Altitude Azimuth Time Altitude Azimuth
Okean-O 4.4 19:46:27 10° SSW 19:50:30 35° W 19:54:35 10° NNW
SL-16 R/B 3.8 19:47:16 10° N 19:51:36 22° NE 19:55:54 10° E
Cosmos 1980 4.2 19:46:28 10° NNW 19:51:58 46° NE 19:57:25 10° SE
Cosmos 2360 Rocket 4.2 19:48:28 10° NW 19:53:16 29° WSW 19:58:02 10° SSW
Cosmos 1953 Rocket 4.1 19:49:51 10° NNW 19:54:10 62° W 19:58:26 10° S
CZ-4 R/B 4.1 19:50:49 10° SSW 19:54:11 23° W 19:57:33 10° NW
Cosmos 2058 Rocket 3.0 19:51:02 10° S 19:55:22 73° E 19:59:44 10° NNE
Cosmos 389 Rocket 3.6 19:53:24 10° SSE 19:56:19 25° E 19:59:17 10° NE
SL-4 R/B 3.7 19:54:03 10° S 19:56:51 17° SE 19:59:45 10° E
SME Rocket 3.4 19:57:10 10° NNE 20:01:04 76° WNW 20:06:06 10° SSW
NOSS 0 Rocket 4.0 19:54:54 10° NNW 20:01:09 74° ENE 20:07:23 10° SE
Cosmos 2251 Rocket 3.6 19:56:25 10° S 20:01:41 62° ESE 20:06:58 10° NNE
Ariane Rocket 3.1 19:57:40 10° SSE 20:02:38 62° ENE 20:07:38 10° N
Cosmos 1455 2.1 20:00:17 10° S 20:04:01 87° E 20:07:46 10° N
Meteor 2-1 Rocket 4.4 20:02:11 10° S 20:07:57 65° E 20:13:50 10° NNE
COSMOS 2487 4.0 20:05:10 10° SW 20:08:23 40° WNW 20:11:38 10° N
COSMOS 2428 3.2 20:02:47 10° NNW 20:08:29 64° WSW 20:14:08 10° SSE
Cosmos 2219 Rocket 3.0 20:02:58 10° NW 20:08:31 54° WSW 20:14:01 10° S
Cosmos 614 Rocket 4.1 20:03:57 10° S 20:08:54 51° ESE 20:13:51 10° NNE
ATLAS 5 CENTAUR R/B 4.3 20:05:45 10° WNW 20:08:58 20° NNW 20:12:33 10° NNE
BREEZE-M DEB (TANK) 3.7 20:06:05 10° WSW 20:09:08 80° SSE 20:17:10 10° ENE
FALCON 9 DEB 4.5 20:08:17 10° S 20:10:15 16° SE 20:11:42 12° ESE
FALCON 9 DEB 3.1 20:08:09 10° WSW 20:11:36 89° ESE 20:15:02 10° ENE
Meteor 2-10 Rocket 4.3 20:06:53 10° SSW 20:12:07 62° WNW 20:17:38 10° N
CZ-4C R/B 4.1 20:07:19 10° W 20:12:09 33° NNW 20:17:56 10° NE
Orbus 7S? 3.0 20:09:50 10° SW 20:12:35 79° SE 20:17:37 10° NE
Cosmos 2344 3.5 20:07:29 10° SSW 20:14:55 74° SE 20:22:50 10° NE
RESURS DK-1 2.6 20:11:24 10° SW 20:15:32 74° WNW 20:19:41 10° NNE
ATLAS 3B R/B 3.1 20:09:22 10° NW 20:16:20 67° SW 20:23:34 10° SSE
SPOT 3 Rocket 4.0 20:11:43 10° SE 20:16:38 45° ENE 20:21:33 10° N
Meteor 2-3 Rocket 4.4 20:15:31 10° N 20:20:52 38° ENE 20:25:24 13° SE
FALCON 9 DEB 4.1 20:20:13 10° S 20:22:35 21° SE 20:23:54 16° ESE
Terra 3.9 20:21:34 10° ENE 20:23:28 12° NE 20:25:22 10° NNE
USA 215 3.7 20:19:07 10° E 20:25:30 59° NNE 20:31:55 10° NW
Resurs 01 Rocket 1.9 20:22:48 12° SSE 20:26:52 53° ENE 20:31:14 10° N
Cosmos 405 Rocket 2.8 20:25:53 10° NNW 20:29:54 82° W 20:33:49 10° S
Resurs 1-3 3.6 20:26:32 10° SSE 20:30:55 87° WSW 20:35:20 10° NNW
MetOp-B 4.5 20:30:18 14° SE 20:34:41 50° ENE 20:39:51 10° N
ERS-1 Rocket 4.4 20:34:05 14° ESE 20:36:55 23° ENE 20:40:47 10° N
Cosmos 2058 4.0 20:33:10 10° NNW 20:37:11 46° W 20:41:10 10° SSW
Cosmos 2237 Rocket 2.2 20:34:30 10° NNW 20:40:11 90° WSW 20:44:52 15° SSE
Meteor 2-14 Rocket 4.4 20:36:36 10° N 20:42:39 68° ENE 20:48:04 13° SSE
Cosmos 1356 4.0 20:39:27 10° NNW 20:42:49 54° W 20:46:09 10° S
FALCON 9 DEB 3.8 20:40:27 10° SSW 20:43:00 26° SE 20:43:00 26° SE
OBJECT-B 2.8 20:40:22 10° SSW 20:43:11 28° W 20:46:03 10° NW
Cosmos 407 Rocket 3.5 20:39:28 10° S 20:44:28 57° ESE 20:49:34 10° NNE
IRIDIUM 104 4.3 20:39:32 10° S 20:44:44 76° E 20:49:58 10° N
Cosmos 1825 4.1 20:44:06 10° NNW 20:47:24 29° W 20:50:43 10° SSW
Lacrosse 5 rocket 3.3 20:47:29 10° NW 20:51:03 26° N 20:54:45 10° ENE
Cosmos 2084 Rocket 3.7 20:48:37 10° SSW 20:52:18 38° ESE 20:56:04 10° NE
Cosmos 1023 Rocket 4.4 20:47:43 10° S 20:52:43 60° ESE 20:57:44 10° NNE
IRIDIUM 114 4.3 20:48:39 10° S 20:53:53 90° NE 20:59:08 10° N
Cosmos 2279 Rocket 4.1 20:48:00 10° S 20:54:12 82° W 21:00:26 10° N
Landsat 7 3.8 20:51:00 18° SSE 20:54:30 75° ENE 20:59:17 10° N
Cosmos 2227 Rocket 2.3 20:50:51 10° S 20:56:19 52° ESE 21:01:48 10° NE
Cosmos 1869 4.3 20:55:43 25° ESE 20:56:27 27° E 20:59:48 10° NNE
Cosmos 1140 Rocket 3.4 20:55:24 10° S 21:00:28 68° ESE 21:05:35 10° NNE
Cosmos 1818 4.4 20:55:59 10° WSW 21:01:18 54° NW 21:06:41 10° NNE
Cosmos 1954 Rocket 4.5 20:58:20 19° SSE 21:01:25 38° ESE 21:06:11 10° NE
IRIDIUM 103 4.5 20:57:49 10° S 21:03:02 77° W 21:08:17 10° N
Cosmos 2297 Rocket 2.1 20:57:30 10° SSW 21:03:07 74° ESE 21:08:47 10° NNE
Cosmos-2242 3.0 21:01:02 18° S 21:04:05 63° E 21:08:21 10° NNE
Abrixas rocket 3.6 21:04:14 10° W 21:04:34 14° W 21:04:34 14° W
Cosmos 482 Debris 4.3 21:04:07 10° WNW 21:06:04 27° N 21:06:19 26° NNE
Meteor 2-21 Rocket 4.4 21:01:23 10° N 21:07:29 82° E 21:11:55 20° SSE
Genesis I 3.3 21:03:41 10° NW 21:07:41 74° SW 21:09:24 33° SSE
Cosmos 2151 3.1 21:04:41 10° NNW 21:09:01 75° W 21:11:51 21° S
Cosmos 1633 2.9 21:06:22 10° NNW 21:09:56 60° W 21:12:01 22° S
Cosmos 2219 3.1 21:05:09 10° SSW 21:10:45 76° ESE 21:16:23 10° NNE
Spot 2 Rocket 3.6 21:09:33 28° SE 21:12:12 62° ENE 21:17:13 10° N
Cosmos 44 Rocket 4.0 21:16:06 31° SE 21:17:20 35° ESE 21:22:01 10° NE
Cosmos 1408 Rocket 4.5 21:13:40 10° N 21:17:32 31° ENE 21:18:23 29° E
Cosmos 2266 Rocket 4.0 21:11:49 10° N 21:18:15 87° W 21:22:48 20° S
Meteor 2-16 Rocket 4.4 21:12:22 10° N 21:18:34 83° E 21:22:33 24° SSE
Meteor 1-4 Rocket 3.0 21:19:02 39° E 21:19:02 39° E 21:22:12 10° NNE
ARIANE 5 R/B 2.6 21:18:32 35° SE 21:20:15 67° ENE 21:24:37 10° N
USA 245 2.9 21:23:36 46° S 21:24:35 86° WSW 21:27:41 10° NNW
IGS 5A 4.4 21:24:08 19° SSW 21:26:48 45° W 21:30:49 10° NNW
Cosmos 468 Rocket 4.3 21:22:56 10° NNW 21:27:58 52° ENE 21:29:45 35° ESE
CZ-2C R/B 3.7 21:24:15 10° NNE 21:28:42 80° WNW 21:32:08 17° SSW
COSMOS 2455 2.9 21:23:13 11° S 21:28:50 51° ESE 21:34:39 10° NE
Cosmos 2221 3.6 21:29:48 27° E 21:29:48 27° E 21:33:06 10° NNE
SL-4 R/B 2.2 21:31:25 10° SW 21:35:48 64° SSE 21:38:43 22° ENE
ATLAS 2AS CENTAUR R/B 4.5 21:28:36 10° W 21:35:49 37° NNW 21:42:48 10° NE
SL-16 R/B 2.1 21:30:47 10° NNW 21:36:32 89° SW 21:38:53 37° SSE
Cosmos 1190 Rocket 4.3 21:36:02 10° SSW 21:41:14 66° WNW 21:46:27 10° NNE
Cosmos 1763 Rocket 3.5 21:37:28 10° NNW 21:42:32 64° ENE 21:43:55 45° SE
Timation 2 Rocket 4.1 21:37:05 10° SSW 21:43:39 78° WNW 21:49:59 10° NNE
Timation 1 Rocket 4.2 21:39:17 16° SSW 21:44:07 68° ESE 21:50:03 10° NE
Cosmos 1862 3.7 21:42:48 10° N 21:46:37 46° ENE 21:46:37 46° ENE
SPOT 1/Viking Rocket 4.1 21:45:34 26° SSW 21:48:21 54° W 21:53:30 10° NNW
FALCON 9 DEB 4.4 21:45:30 10° WNW 21:48:45 39° N 21:50:09 26° NE
Cosmos 540 Rocket 4.0 21:48:10 10° NNW 21:53:06 45° ENE 21:54:12 39° E
Cosmos 1500 Rocket 4.2 21:49:50 10° N 21:54:05 40° ENE 21:54:14 40° E
Cosmos 1766 Rocket 3.9 21:50:31 10° NNW 21:54:48 60° W 21:55:59 42° SSW
CARTOSAT-1 3.8 21:54:01 47° SSW 21:55:04 65° WSW 21:59:24 10° NNW
Cosmos 1244 Rocket 4.5 21:50:25 10° N 21:56:48 74° E 21:59:04 42° SSE
Cosmos 676 Rocket 4.1 21:55:27 18° SSW 21:59:23 75° WNW 22:04:36 10° NNE
Meteor 2-15 4.3 21:57:22 38° S 21:59:51 78° E 22:05:56 10° NNE
NOSS 3-1 (C) 4.0 21:53:02 10° NW 22:00:23 79° NE 22:04:15 36° SE
Terra 1.7 21:59:35 59° SE 22:00:24 75° ENE 22:05:11 10° N
JB-3 4.4 21:56:30 10° N 22:00:37 80° WNW 22:01:12 64° SW
Okean 3 Rocket 4.2 21:56:19 10° NNW 22:00:45 53° W 22:02:06 38° SW
Cosmos 1943 3.9 21:57:52 10° NNW 22:03:15 43° NE 22:04:47 35° E
Resurs 01 Rocket 3.9 22:00:32 10° SW 22:03:41 19° W 22:06:51 10° NW
BREEZE-M DEB (TANK) 4.2 22:01:22 10° W 22:01:49 13° W 22:01:49 13° W
SPOT 5 2.8 22:05:05 54° SSW 22:06:01 72° WSW 22:10:51 10° NNW
USA 215 3.3 22:06:17 42° SSE 22:08:31 64° SW 22:15:01 10° WNW
Cosmos 1553 Rocket 4.0 22:08:28 48° SE 22:09:41 57° E 22:15:40 10° NNE
TSX-5 3.9 22:11:33 76° E 22:11:33 76° E 22:15:24 10° NE
H-2A R/B 3.4 22:10:16 10° NNE 22:14:18 76° ENE 22:14:18 76° ENE
ERS-1 Rocket 3.3 22:14:04 45° SSW 22:15:20 59° W 22:20:19 10° NNW
BREEZE M DEB (TANK) 2.8 22:12:48 10° W 22:17:00 50° WNW 22:17:00 50° WNW
Cosmos 1606 4.2 22:22:29 27° NE 22:22:29 27° NE 22:24:32 10° NNE
Aureole 1 Rocket 3.6 22:22:52 59° ESE 22:22:52 59° ESE 22:27:21 10° NNE
Cosmos 2237 Rocket 4.5 22:20:15 10° WNW 22:23:24 15° W 22:26:33 10° SW
Cosmos 1570 Rocket 4.2 22:21:35 10° NNW 22:26:49 56° ENE 22:27:21 54° E
Lacrosse 5 rocket 2.3 22:26:52 10° NW 22:31:01 44° NNE 22:31:37 41° NE
Cosmos 2263 Rocket 2.4 22:33:26 51° E 22:33:26 51° E 22:38:20 10° NE
SeaSat 1 3.7 22:31:40 10° NE 22:34:31 28° ENE 22:34:31 28° ENE
Cosmos 921 Rocket 3.3 22:33:19 10° NNW 22:37:16 65° NNE 22:37:16 65° NNE
Cosmos 2082 4.3 22:35:16 15° SW 22:39:47 53° NW 22:45:18 10° NNE
Cosmos 2227 Rocket 3.9 22:35:35 10° WSW 22:40:38 32° NW 22:45:42 10° NNE
Cosmos 1842 Rocket 4.0 22:40:37 56° W 22:40:51 57° WNW 22:45:17 10° N
BREEZE-M DEB (TANK) 3.9 22:34:36 10° WNW 22:40:35 43° WSW 22:40:35 43° WSW
Cosmos 1741 Rocket 3.9 22:41:17 70° SW 22:41:55 85° WNW 22:47:15 10° NNE
Cosmos 1850 Rocket 4.0 22:44:49 64° SW 22:45:33 76° WNW 22:50:50 10° NNE
Cosmos 2297 Rocket 4.3 22:43:08 10° W 22:47:45 25° NW 22:52:23 10° N
Cosmos 2315 Rocket 4.5 22:48:28 43° E 22:48:43 43° E 22:54:40 10° NNE
Cosmos 1603 3.5 22:45:20 10° NNW 22:51:06 87° WSW 22:51:30 78° SSE
Spot 4 4.2 22:52:41 55° ENE 22:52:41 55° ENE 22:57:13 10° N
Cosmos 44 Rocket 4.4 22:54:36 14° WSW 22:58:48 46° NW 23:03:51 10° NNE
Cosmos 1805 Rocket 4.1 22:58:34 10° NNW 23:02:06 56° NNW 23:02:06 56° NNW
Sich 1 3.7 23:00:45 10° N 23:04:02 52° N 23:04:02 52° N
Cosmos 2208 Rocket 4.0 23:00:20 10° NNW 23:05:36 86° NW 23:05:36 86° NW
Cosmos 2221 3.9 23:06:36 30° W 23:06:56 31° WNW 23:10:47 10° N
USA 229 DEB 3.9 23:01:53 10° NW 23:09:09 69° SW 23:10:27 59° S
USA 229 3.9 23:01:58 10° NW 23:09:14 70° SW 23:10:34 59° S
Cosmos 1745 Rocket 4.1 23:05:32 10° NNW 23:11:46 63° W 23:12:41 56° SW
Cosmos 1437 Rocket 4.4 23:14:55 31° N 23:14:55 31° N 23:17:00 10° N
COSMOS 2455 4.1 23:09:23 10° WSW 23:14:58 39° NW 23:20:36 10° NNE
Cosmos 841 Rocket 4.2 23:10:28 10° NNW 23:15:08 44° W 23:15:08 44° W
SL-4 R/B 3.2 23:11:02 10° W 23:14:25 45° WNW 23:14:25 45° WNW
Cosmos 1709 Rocket 3.8 23:10:56 10° N 23:17:11 88° E 23:17:37 79° SSE
SL-16 R/B 4.2 23:16:35 10° WNW 23:19:48 16° W 23:20:46 15° WSW
Cosmos 1633 Rocket 4.0 23:19:57 10° N 23:23:07 46° N 23:23:07 46° N
S3M 4.3 23:24:48 50° WSW 23:26:08 60° WNW 23:32:29 10° N
Meteor 1-25 Rocket 4.2 23:20:59 10° NNW 23:26:44 77° W 23:26:46 77° WSW
NOSS 3-1 (A) 4.2 23:19:40 10° NW 23:27:05 62° WSW 23:28:27 55° SSW
Cosmos 883 Rocket 4.3 23:27:09 77° SSW 23:27:38 86° W 23:33:58 10° N
Cosmos 1666 Rocket 4.4 23:29:40 10° NNW 23:33:00 49° NNW 23:33:00 49° NNW
Terra 4.1 23:38:27 15° W 23:38:43 15° W 23:41:24 10° NW
ATLAS 5 CENTAUR R/B 3.9 23:37:23 10° NNW 23:41:49 27° NNE 23:46:48 10° E
Cosmos 1943 4.2 23:42:07 10° NW 23:46:36 35° W 23:46:36 35° W
Meteor 1-26 Rocket 4.2 23:49:13 85° NW 23:49:13 85° NW 23:54:59 10° N
ALOS 2 3.6 23:52:15 44° NNW 23:52:15 44° NNW 23:55:19 10° NNW
